Regional Weather Roundup
Issued by NWS

Home | Current Version | Previous Version | Text Only | Print | Product List | Glossary Off
Versions: 1 2 3 4 5 6 7 8 9 10 11 12 13 14 15 16 17 18 19 20 21 22 23 24 25 26 27 28 29 30 31 32 33 34 35 36 37 38 39 40 41 42 43 44 45 46 47 48 49 50

000
ASUS43 KOAX 111402
RWRNE

WEATHER ROUNDUP FOR NEBRASKA
NATIONAL WEATHER SERVICE OMAHA NE
800 AM CST MON DEC 11 2017

NOTES: SATELLITE DATA IS BEING USED TO AUGMENT CLOUD COVER ABOVE
       12000 FEET.
       "FAIR" INDICATES FEW OR NO CLOUDS BELOW 12,000 FEET WITH NO
       SIGNIFICANT WEATHER AND/OR OBSTRUCTIONS TO VISIBILITY.


NEZ001>004-019>022-054>056-111500-
NEBRASKA PANHANDLE

CITY           SKY/WX    TMP DP  RH WIND       PRES   REMARKS
SCOTTSBLUFF    CLOUDY    29  11  47 NW17      30.29R WCI  17
ALLIANCE       CLOUDY    40  16  37 W10G20    30.23R WCI  33
CHADRON        MOCLDY    43  16  33 W23G30    30.24S
GORDON         FAIR      39  19  43 W14       30.17S WCI  31
KIMBALL        CLOUDY    40   4  23 NW18G25   30.31R WCI  30
SIDNEY         CLOUDY    29   7  39 W10       30.26S WCI  20
$$

NEZ057>060-069>072-079>082-111500-
SOUTHWEST NEBRASKA

CITY           SKY/WX    TMP DP  RH WIND       PRES   REMARKS
NORTH PLATTE   CLOUDY    29  18  63 NW6       30.17S WCI  23
IMPERIAL       PTCLDY    42   9  25 W15       30.23R
LEXINGTON      CLOUDY    37  16  41 W12       30.13S WCI  30
MCCOOK         PTCLDY    39  13  34 W14       30.19F WCI  31
OGALLALA       CLOUDY    34  13  42 W6        30.21S WCI  29
$$

NEZ005>010-023>029-035>040-094-111500-
NORTH CENTRAL NEBRASKA

CITY           SKY/WX    TMP DP  RH WIND       PRES   REMARKS
VALENTINE      CLOUDY    45  20  36 NW32G45   30.10R
AINSWORTH      CLEAR     42  21  44 N21G30    30.10R
BROKEN BOW     PTCLDY    50  15  24 NW28G37   30.08R
O`NEILL        CLEAR     41  26  54 NW26G36   30.04R
ORD            CLEAR     46  16  30 NW16      30.04R
THEDFORD       PTCLDY    48  18  30 NW21G32   30.12R
$$

NEZ041-046>049-061>064-073>077-083>087-111500-
SOUTH CENTRAL NEBRASKA

CITY           SKY/WX    TMP DP  RH WIND       PRES   REMARKS
GRAND ISLAND   CLOUDY    44  17  33 W15       30.04F
AURORA         CLOUDY    37  17  43 W12       30.03S WCI  29
HASTINGS       CLOUDY    43  15  32 W14       30.06F
HEBRON         CLOUDY    48  16  27 NW14G23   30.06R
HOLDREGE       CLOUDY    43  18  36 W14       30.12F
KEARNEY        CLOUDY    37  15  40 W12       30.09F WCI  29
$$

NEZ011>018-030>034-042>045-111500-
NORTHEAST NEBRASKA

CITY           SKY/WX    TMP DP  RH WIND       PRES   REMARKS
NORFOLK        CLEAR     44  25  47 NW26G41   29.96R
ALBION         CLEAR     43  19  38 NW15      30.00R
BLAIR          CLEAR     46  25  43 NW24G35   29.93R
COLUMBUS       CLEAR     45  19  35 W17       29.99R
FREMONT        CLEAR     35  19  52 W9        29.96R WCI  28
TEKAMAH        CLEAR     43  22  43 NW23G31   29.93R
WAYNE          PTCLDY    42  23  45 NW26G32   29.94S
$$

NEZ050>053-065>068-078-088>093-111500-
SOUTHEAST NEBRASKA

CITY           SKY/WX    TMP DP  RH WIND       PRES   REMARKS
LINCOLN        CLOUDY    46  18  32 W18       29.98S
OMAHA EPPLEY   PTCLDY    44  20  38 NW24G35   29.92R
BEATRICE       CLOUDY    44  19  37 W14       30.00S
FALLS CITY     CLOUDY    42  17  36 W18       29.94F
NEBRASKA CITY  CLOUDY    43  19  39 W16       29.94R
PLATTSMOUTH    PTCLDY    45  20  36 NW16      29.93R
$$

NEZ044-045-051>053-067-111500-
OMAHA AREA

CITY           SKY/WX    TMP DP  RH WIND       PRES   REMARKS
OMAHA EPPLEY   PTCLDY    44  20  38 NW24G35   29.92R
BLAIR          CLEAR     46  25  43 NW24G35   29.93R
FREMONT        CLEAR     35  19  52 W9        29.96R WCI  28
MILLARD        CLOUDY    43  21  41 NW7       29.95R
OFFUTT AFB     CLEAR     45  19  35 NW23G31   29.93R
PLATTSMOUTH    PTCLDY    45  20  36 NW16      29.93R
WAHOO          FAIR      44  18  36 NW14      29.95R
$$




USA.gov is the U.S. government's official web portal to all federal, state and local government web resources and services.